sat.trackr.live / text

‹ back to catalog

STARLINK-35506

NORAD 66324 · 2025-253F

PAYLOAD ACTIVE UNKNOWN

§ Identity

Operator
Country
US
Launch date
2025-11-06
Launch site
AFETR
Launch vehicle
Mass (kg)
RCS (m²)

Purposes: comms

External: N2YO · Heavens-Above · Gunter

§ Orbital elements

Epoch: 2026-09-20T04:24:00.909504Z

Period
94.27 min
Inclination
43.0016°
Eccentricity
0.0000837
Mean motion
15.27590258 rev/d
Perigee alt
482.4 km
Apogee alt
483.6 km
Semi-major
6,861.2 km
B*
2.7436e-4
RAAN
193.7746°
Arg perigee
238.9013°
Mean anomaly
121.1757°
Rev number
4,999

§ Raw data

STARLINK-355061 66324U 25253F   26263.18334386  .00007298  00000+0  27436-3 0  99932 66324  43.0016 193.7746 0000837 238.9013 121.1757 15.27590258 49997

JSON: /api/v1/satellites/66324 · /tle

For live sub-satellite position, see the globe view (requires WebGL).

§ Visibility from observer

Set your observer location to see the next 7 days of passes ≥ 10°. The values pass through the URL so the page stays shareable.

No JS? Fill the form by hand. The geolocation button needs JavaScript.